Tracking 29892 objects as of 21-Nov-2024
HD Live streaming from Space Station
objects crossing your sky now

STARLINK-1978

Track STARLINK-1978 now!
10-day predictions
STARLINK-1978 is classified as:


NORAD ID: 47576
Int'l Code: 2021-009AE
Perigee: 550.6 km
Apogee: 558.0 km
Inclination: 53.1 °
Period: 95.6 minutes
Semi major axis: 6925 km
RCS: Unknown
Launch date: February 4, 2021
Source: United States (US)
Launch site: AIR FORCE EASTERN TEST RANGE (AFETR)
Your satellite tracking list
Your tracking list is empty




NASA's NSSDC Master Catalog

Two Line Element Set (TLE):
1 47576U 21009AE  24326.03272476  .00008710  00000-0  60268-3 0  9990
2 47576  53.0514 327.9405 0005317 102.0499 258.1086 15.06409248210293
Source of the keplerian elements: AFSPC